Retour au catalogue

STARLINK-37739

ActifCommunicationsSSO
NORAD 69233·PAYLOAD·🇺🇸 United States

Lancé May 26, 2026 depuis Vandenberg Space Force Base

Loading…

Prochains Passages (prochaines 24 heures)

TLE

FraisSource: CelesTrak SupGP

Époque: Sep 15, 2026, 04:28 UTC

1 69233C 26115Y   26258.18659722 -.00058686  00000+0 -18220-2 0  2588
2 69233  97.2832 274.4133 0001443  93.6796 129.7470 15.33463807    13

Suivez STARLINK-37739 en temps réel avec AllMySat

Download on the App Store